sat.trackr.live / text

‹ back to catalog

STARLINK-36061

NORAD 66847 · 2025-280AC

PAYLOAD ACTIVE UNKNOWN

§ Identity

Operator
Country
US
Launch date
2025-12-02
Launch site
AFWTR
Launch vehicle
Mass (kg)
RCS (m²)

Purposes: comms

External: N2YO · Heavens-Above · Gunter

§ Orbital elements

Epoch: 2026-05-25T03:24:49.955040Z

Period
96.11 min
Inclination
70.0007°
Eccentricity
0.0003934
Mean motion
14.98339874 rev/d
Perigee alt
569.3 km
Apogee alt
574.8 km
Semi-major
6,950.2 km
B*
3.6937e-4
RAAN
141.8564°
Arg perigee
267.8415°
Mean anomaly
92.2294°
Rev number
2,752

§ Raw data

STARLINK-360611 66847U 25280AC  26145.14224485  .00004318  00000+0  36937-3 0  99922 66847  70.0007 141.8564 0003934 267.8415  92.2294 14.98339874 27528

JSON: /api/v1/satellites/66847 · /tle

For live sub-satellite position, see the globe view (requires WebGL).

§ Visibility from observer

Set your observer location to see the next 7 days of passes ≥ 10°. The values pass through the URL so the page stays shareable.

No JS? Fill the form by hand. The geolocation button needs JavaScript.